Location: Unspecified
(0.0000°N, 0.0000°E)
Time: 16:27:10
(UTC+00:00)

Interbol-2 - Pass Details

Date: 13 June 2023
Orbit: 911 x 19062 km, 62.8° (Epoch: 28 September)

Event Time Altitude Azimuth Distance (km) Brightness Sun altitude
Rises 23:21:00 0° 255° (WSW) 10,172 11.3 -65.0°
Reaches altitude 10° 23:30:53 10° 269° (W) 11,289 11.4 -65.8°
Maximum altitude 00:07:29 20° 303° (WNW) 16,557 12.2 -66.7°
Drops below altitude 10° 03:59:35 10° 52° (NE) 10,057 12.1 -27.5°
Sets 04:11:42 0° 77° (ENE) 8,266 12.1 -24.7°
